Regional Weather Roundup
Issued by NWS

Home | Current Version | Previous Version | Text Only | Print | Product List | Glossary On
Versions: 1 2 3 4 5 6 7 8 9 10 11 12 13 14 15 16 17 18 19 20 21 22 23 24 25 26 27 28 29 30 31 32 33 34 35 36 37 38 39 40 41 42 43 44 45 46 47 48 49 50
000
ASCA42 TJSJ 010711
RWRPR
PUERTO RICO/U.S. VIRGIN ISLANDS HOURLY WEATHER ROUNDUP
NATIONAL WEATHER SERVICE SAN JUAN PR
300 AM AST SAT NOV 01 2014

PRZ001-004-010800-
PUERTO RICO

CITY           SKY/WX    TMP DP  RH WIND       PRES   REMARKS
SAN JUAN LMM   CLEAR     79  75  89 CALM      29.92F
PONCE          PTCLDY    77  73  88 NE6       29.89F
AGUADILLA      CLEAR     73  72  94 S3        29.93F
CEIBA          CLEAR     77  75  94 CALM      29.94F
$$

PRZ006-007-010800-
U.S. VIRGIN ISLANDS

CITY           SKY/WX    TMP DP  RH WIND       PRES   REMARKS
$$

HOURLY WEATHER ROUNDUP FOR THE NEWS MEDIA

CITY           SKY/WX    TMP DP  RH WIND       PRES   REMARKS
MIAMI          CLEAR     66  52  60 NW10      29.92S
ORLANDO        CLEAR     61  50  67 W7        29.89S
NEW YORK       CLOUDY    49  43  80 NE18      29.82F
NEWARK         LGT RAIN  47  43  86 N16       29.83F
CHICAGO        CLOUDY    35  21  56 N16G25    30.34S WCI  25
HARTFORD       CLOUDY    49  40  71 NE10      29.86F
BOSTON         CLOUDY    47  37  68 N14       29.92F
DALLAS         CLEAR     47  30  51 NE5       30.37S
PHILADELPHIA   CLOUDY    51  44  77 NE18G25   29.78F



USA.gov is the U.S. government's official web portal to all federal, state and local government web resources and services.